RYR4P LFTW-EIDW

Flight info

Callsign RYR4P
Flight time 2h 7m
Altitude 36000
Route FJR DCT GAI DCT SECHE DCT UVELI DCT CNA DCT MANAK DCT MUREL DCT NOZHU/N0461F350 DCT SHIRI/N0463F360 DCT UNFIT DCT PENWU DCT NICXI DCT PEMOB M17 VATRY VATRY4L
Aircraft B738/M-SDE2E3FGHIRWXY/LB1

Departure

Time 2026-04-20 13:24
Airport Nîmes-Arles-Camargue Airport (LFTW)

Arrival

Time 2026-04-20 15:31
Airport Dublin Airport (EIDW)
Time Latitude Longitude Altitude Speed Heading
2026-04-20 12:48 43.76297 4.42063 308 ft 0 kts 88°
2026-04-20 13:14 43.76297 4.42057 308 ft 4 kts 88°
2026-04-20 13:14 43.76295 4.42021 308 ft 4 kts 70°
2026-04-20 13:14 43.76285 4.42002 305 ft 2 kts 356°
2026-04-20 13:14 43.76284 4.42002 305 ft 1 kts 356°
2026-04-20 13:19 43.76291 4.42002 306 ft 4 kts 356°
2026-04-20 13:19 43.76347 4.41995 309 ft 10 kts 348°
2026-04-20 13:19 43.76387 4.41927 309 ft 10 kts 275°
2026-04-20 13:19 43.76386 4.41834 310 ft 10 kts 268°
2026-04-20 13:20 43.76381 4.41714 310 ft 15 kts 267°
2026-04-20 13:20 43.76361 4.41604 308 ft 10 kts 215°
2026-04-20 13:20 43.76290 4.41595 308 ft 12 kts 177°
2026-04-20 13:20 43.76181 4.41602 305 ft 19 kts 177°
2026-04-20 13:21 43.76029 4.41614 304 ft 25 kts 177°
2026-04-20 13:21 43.75841 4.41627 305 ft 28 kts 177°
2026-04-20 13:21 43.75639 4.41642 310 ft 30 kts 177°
2026-04-20 13:21 43.75422 4.41661 312 ft 32 kts 174°
2026-04-20 13:22 43.75190 4.41677 314 ft 34 kts 177°
2026-04-20 13:22 43.74959 4.41693 312 ft 32 kts 177°
2026-04-20 13:22 43.74773 4.41707 307 ft 18 kts 164°
2026-04-20 13:22 43.74686 4.41760 307 ft 12 kts 194°
2026-04-20 13:23 43.74689 4.41710 310 ft 7 kts 346°
2026-04-20 13:23 43.74702 4.41708 309 ft 0 kts 357°
2026-04-20 13:23 43.74703 4.41708 307 ft 5 kts 357°
2026-04-20 13:23 43.74998 4.41689 311 ft 78 kts 357°
2026-04-20 13:24 43.75770 4.41634 306 ft 142 kts 357°
2026-04-20 13:24 43.76899 4.41543 507 ft 178 kts 352°
2026-04-20 13:24 43.78111 4.41068 1255 ft 180 kts 339°
2026-04-20 13:24 43.79276 4.40449 2068 ft 182 kts 332°
2026-04-20 13:25 43.80425 4.39450 2406 ft 209 kts 318°
2026-04-20 13:25 43.81377 4.37830 2667 ft 230 kts 293°
2026-04-20 13:25 43.81684 4.35603 3051 ft 244 kts 264°
2026-04-20 13:25 43.81153 4.33272 3377 ft 267 kts 240°
2026-04-20 13:26 43.79991 4.31254 4302 ft 265 kts 226°
2026-04-20 13:26 43.78685 4.29473 5314 ft 264 kts 225°
2026-04-20 13:26 43.77364 4.27682 6075 ft 269 kts 231°
2026-04-20 13:26 43.76100 4.25738 6882 ft 273 kts 232°
2026-04-20 13:27 43.74843 4.23764 7697 ft 275 kts 232°
2026-04-20 13:27 43.73579 4.21772 8534 ft 276 kts 232°
2026-04-20 13:27 43.72302 4.19773 9358 ft 279 kts 232°
2026-04-20 13:27 43.71010 4.17775 10167 ft 279 kts 232°
2026-04-20 13:28 43.69679 4.15717 10552 ft 298 kts 231°
2026-04-20 13:28 43.68245 4.13498 10734 ft 321 kts 231°
2026-04-20 13:28 43.66707 4.11122 10906 ft 343 kts 231°
2026-04-20 13:28 43.65066 4.08591 11061 ft 363 kts 231°
2026-04-20 13:29 43.63931 4.06843 11180 ft 375 kts 231°
2026-04-20 13:29 43.62161 4.04119 11604 ft 384 kts 231°
2026-04-20 13:29 43.60384 4.01354 12291 ft 385 kts 233°
2026-04-20 13:29 43.58857 3.97024 13124 ft 382 kts 260°
2026-04-20 13:30 43.58651 3.93383 13762 ft 383 kts 275°
2026-04-20 13:30 43.59138 3.89765 14312 ft 385 kts 284°
2026-04-20 13:30 43.59804 3.86170 14847 ft 388 kts 284°
2026-04-20 13:30 43.60497 3.82553 15390 ft 391 kts 284°
2026-04-20 13:31 43.60969 3.80099 15775 ft 393 kts 284°
2026-04-20 13:31 43.61668 3.76433 16275 ft 397 kts 284°
2026-04-20 13:31 43.62365 3.72726 16762 ft 401 kts 284°
2026-04-20 13:31 43.63059 3.68991 17283 ft 403 kts 284°
2026-04-20 13:32 43.63752 3.65223 17790 ft 406 kts 284°
2026-04-20 13:32 43.64445 3.61430 18284 ft 409 kts 284°
2026-04-20 13:32 43.65139 3.57610 18731 ft 412 kts 284°
2026-04-20 13:32 43.65835 3.53768 19200 ft 413 kts 284°
2026-04-20 13:33 43.66533 3.49906 19657 ft 415 kts 284°
2026-04-20 13:33 43.67222 3.46084 20103 ft 417 kts 283°
2026-04-20 13:33 43.67932 3.42135 20543 ft 419 kts 283°
2026-04-20 13:33 43.68626 3.38271 20961 ft 421 kts 283°
2026-04-20 13:34 43.69331 3.34336 21373 ft 423 kts 283°
2026-04-20 13:34 43.70039 3.30378 21779 ft 425 kts 283°
2026-04-20 13:34 43.70747 3.26408 22197 ft 426 kts 283°
2026-04-20 13:34 43.71457 3.22422 22592 ft 428 kts 283°
2026-04-20 13:35 43.72169 3.18414 22962 ft 431 kts 283°
2026-04-20 13:35 43.72885 3.14377 23301 ft 433 kts 283°
2026-04-20 13:35 43.73601 3.10327 23636 ft 435 kts 283°
2026-04-20 13:35 43.74319 3.06257 23943 ft 436 kts 283°
2026-04-20 13:36 43.75038 3.02175 24228 ft 438 kts 283°
2026-04-20 13:36 43.75758 2.98077 24510 ft 440 kts 283°
2026-04-20 13:36 43.76481 2.93954 24798 ft 441 kts 283°
2026-04-20 13:36 43.77202 2.89828 25086 ft 442 kts 283°
2026-04-20 13:37 43.77926 2.85683 25349 ft 444 kts 283°
2026-04-20 13:37 43.78650 2.81526 25652 ft 445 kts 283°
2026-04-20 13:37 43.79371 2.77371 26048 ft 443 kts 283°
2026-04-20 13:37 43.80088 2.73234 26506 ft 441 kts 282°
2026-04-20 13:38 43.80801 2.69113 26908 ft 439 kts 282°
2026-04-20 13:38 43.81509 2.65006 27292 ft 438 kts 283°
2026-04-20 13:38 43.82214 2.60911 27725 ft 436 kts 283°
2026-04-20 13:38 43.82913 2.56840 28190 ft 434 kts 282°
2026-04-20 13:39 43.83608 2.52778 28573 ft 433 kts 282°
2026-04-20 13:39 43.84301 2.48722 28946 ft 433 kts 282°
2026-04-20 13:39 43.84993 2.44668 29360 ft 431 kts 282°
2026-04-20 13:39 43.85679 2.40633 29825 ft 429 kts 282°
2026-04-20 13:40 43.86359 2.36624 30239 ft 427 kts 282°
2026-04-20 13:40 43.87038 2.32615 30542 ft 427 kts 282°
2026-04-20 13:40 43.87713 2.28616 30838 ft 426 kts 282°
2026-04-20 13:40 43.88386 2.24624 31166 ft 425 kts 282°
2026-04-20 13:41 43.89057 2.20633 31496 ft 424 kts 282°
2026-04-20 13:41 43.89724 2.16658 31815 ft 423 kts 282°
2026-04-20 13:41 43.90390 2.12683 32105 ft 423 kts 282°
2026-04-20 13:41 43.91052 2.08718 32412 ft 422 kts 282°
2026-04-20 13:42 43.91711 2.04761 32737 ft 421 kts 282°
2026-04-20 13:42 43.93021 1.96871 33320 ft 419 kts 282°
2026-04-20 13:42 43.93674 1.92931 33604 ft 418 kts 282°
2026-04-20 13:43 43.94323 1.89004 33870 ft 418 kts 282°
2026-04-20 13:43 43.94977 1.85067 34078 ft 419 kts 283°
2026-04-20 13:43 43.95862 1.81220 34293 ft 420 kts 291°
2026-04-20 13:43 43.97147 1.77576 34550 ft 420 kts 296°
2026-04-20 13:44 43.98521 1.74004 34779 ft 419 kts 296°
2026-04-20 13:44 43.99875 1.70484 34967 ft 420 kts 296°
2026-04-20 13:44 44.01247 1.66902 35187 ft 419 kts 296°
2026-04-20 13:44 44.02606 1.63328 35463 ft 418 kts 296°
2026-04-20 13:45 44.03954 1.59765 35738 ft 416 kts 295°
2026-04-20 13:45 44.05295 1.56205 35932 ft 415 kts 295°
2026-04-20 13:45 44.07981 1.49041 35968 ft 419 kts 295°
2026-04-20 13:46 44.10670 1.41851 35968 ft 418 kts 295°
2026-04-20 13:46 44.13340 1.34694 35974 ft 416 kts 295°
2026-04-20 13:47 44.15996 1.27555 35970 ft 415 kts 295°
2026-04-20 13:47 44.18641 1.20428 35958 ft 414 kts 295°
2026-04-20 13:48 44.21277 1.13307 35962 ft 413 kts 295°
2026-04-20 13:48 44.23894 1.06220 35964 ft 414 kts 295°
2026-04-20 13:49 44.26527 0.99071 35958 ft 415 kts 295°
2026-04-20 13:49 44.29160 0.91900 35949 ft 416 kts 295°
2026-04-20 13:50 44.31794 0.84711 35953 ft 416 kts 295°
2026-04-20 13:50 44.34428 0.77504 35947 ft 417 kts 295°
2026-04-20 13:51 44.37061 0.70277 35944 ft 417 kts 295°
2026-04-20 13:51 44.39696 0.63030 35947 ft 418 kts 295°
2026-04-20 13:52 44.42402 0.55832 35957 ft 420 kts 302°
2026-04-20 13:52 44.44281 0.52685 35955 ft 424 kts 313°
2026-04-20 13:52 44.46524 0.49985 35945 ft 428 kts 321°
2026-04-20 13:53 44.51823 0.46055 35947 ft 434 kts 330°
2026-04-20 13:53 44.57302 0.42530 35953 ft 433 kts 330°
2026-04-20 13:54 44.62770 0.38961 35969 ft 432 kts 330°
2026-04-20 13:54 44.68208 0.35352 35947 ft 432 kts 330°
2026-04-20 13:55 44.73632 0.31727 35957 ft 431 kts 330°
2026-04-20 13:55 44.79015 0.28121 35962 ft 431 kts 330°
2026-04-20 13:56 44.84428 0.24488 35957 ft 430 kts 330°
2026-04-20 13:56 44.89828 0.20857 35958 ft 430 kts 330°
2026-04-20 13:57 44.95229 0.17218 35952 ft 430 kts 330°
2026-04-20 13:57 45.00629 0.13572 35979 ft 430 kts 330°
2026-04-20 13:58 45.06026 0.09921 35959 ft 430 kts 330°
2026-04-20 13:58 45.11419 0.06265 35952 ft 430 kts 330°
2026-04-20 13:59 45.16805 0.02605 35951 ft 429 kts 330°
2026-04-20 13:59 45.22185 -0.01059 35959 ft 429 kts 330°
2026-04-20 14:00 45.27560 -0.04727 35961 ft 428 kts 330°
2026-04-20 14:00 45.32925 -0.08397 35962 ft 428 kts 330°
2026-04-20 14:01 45.38286 -0.12072 35969 ft 428 kts 330°
2026-04-20 14:01 45.43650 -0.15756 35977 ft 428 kts 329°
2026-04-20 14:02 45.49005 -0.19442 35983 ft 428 kts 329°
2026-04-20 14:02 45.54363 -0.23138 35992 ft 427 kts 329°
2026-04-20 14:03 45.59712 -0.26836 36011 ft 427 kts 329°
2026-04-20 14:03 45.65059 -0.30564 35993 ft 426 kts 327°
2026-04-20 14:04 45.69848 -0.35385 35998 ft 420 kts 317°
2026-04-20 14:04 45.74406 -0.40609 35983 ft 419 kts 317°
2026-04-20 14:05 45.78942 -0.45781 35999 ft 419 kts 317°
2026-04-20 14:05 45.83519 -0.50972 35988 ft 419 kts 317°
2026-04-20 14:06 45.88099 -0.56166 35994 ft 419 kts 317°
2026-04-20 14:06 45.92671 -0.61360 35993 ft 419 kts 317°
2026-04-20 14:07 45.97241 -0.66564 36020 ft 419 kts 317°
2026-04-20 14:07 46.01806 -0.71774 36009 ft 419 kts 317°
2026-04-20 14:08 46.06368 -0.76993 35998 ft 419 kts 317°
2026-04-20 14:08 46.10928 -0.82220 35999 ft 418 kts 317°
2026-04-20 14:09 46.15476 -0.87446 36005 ft 418 kts 317°
2026-04-20 14:09 46.20028 -0.92685 36016 ft 418 kts 317°
2026-04-20 14:10 46.24979 -0.97193 36030 ft 423 kts 327°
2026-04-20 14:10 46.30141 -1.01180 36022 ft 423 kts 327°
2026-04-20 14:11 46.35329 -1.05211 36020 ft 423 kts 327°
2026-04-20 14:11 46.40506 -1.09276 36029 ft 423 kts 327°
2026-04-20 14:12 46.45670 -1.13356 36036 ft 423 kts 327°
2026-04-20 14:12 46.50832 -1.17448 36036 ft 423 kts 327°
2026-04-20 14:13 46.55990 -1.21546 36029 ft 423 kts 327°
2026-04-20 14:13 46.61148 -1.25653 36050 ft 423 kts 327°
2026-04-20 14:14 46.66306 -1.29767 36047 ft 423 kts 327°
2026-04-20 14:14 46.71467 -1.33894 36050 ft 423 kts 327°
2026-04-20 14:15 46.76627 -1.38029 36044 ft 423 kts 327°
2026-04-20 14:15 46.81791 -1.42176 36053 ft 424 kts 327°
2026-04-20 14:16 46.86958 -1.46334 36054 ft 424 kts 327°
2026-04-20 14:16 46.91248 -1.49794 36046 ft 424 kts 327°
2026-04-20 14:17 46.96417 -1.53972 36073 ft 424 kts 327°
2026-04-20 14:17 47.01587 -1.58159 36060 ft 425 kts 327°
2026-04-20 14:18 47.06758 -1.62356 36057 ft 425 kts 327°
2026-04-20 14:18 47.11926 -1.66560 36068 ft 424 kts 327°
2026-04-20 14:19 47.17088 -1.70769 36094 ft 424 kts 327°
2026-04-20 14:19 47.22245 -1.74983 36082 ft 424 kts 327°
2026-04-20 14:20 47.27406 -1.79211 36069 ft 425 kts 327°
2026-04-20 14:20 47.32573 -1.83453 36075 ft 425 kts 327°
2026-04-20 14:21 47.37698 -1.87669 36094 ft 425 kts 327°
2026-04-20 14:21 47.42864 -1.91929 36083 ft 425 kts 327°
2026-04-20 14:22 47.48031 -1.96200 36079 ft 426 kts 327°
2026-04-20 14:22 47.53196 -2.00478 36082 ft 426 kts 327°
2026-04-20 14:23 47.58366 -2.04770 36101 ft 426 kts 327°
2026-04-20 14:23 47.63540 -2.09076 36093 ft 427 kts 327°
2026-04-20 14:24 47.68719 -2.13395 36093 ft 427 kts 327°
2026-04-20 14:24 47.73894 -2.17722 36100 ft 427 kts 327°
2026-04-20 14:25 47.79075 -2.22063 36112 ft 428 kts 327°
2026-04-20 14:25 47.84264 -2.26421 36099 ft 428 kts 327°
2026-04-20 14:26 47.89452 -2.30788 36106 ft 429 kts 327°
2026-04-20 14:26 47.94645 -2.35170 36103 ft 429 kts 327°
2026-04-20 14:27 47.99842 -2.39565 36118 ft 429 kts 327°
2026-04-20 14:27 48.05042 -2.43973 36115 ft 430 kts 327°
2026-04-20 14:28 48.10246 -2.48394 36106 ft 430 kts 327°
2026-04-20 14:28 48.15446 -2.52824 36114 ft 430 kts 327°
2026-04-20 14:29 48.20644 -2.57261 36120 ft 430 kts 327°
2026-04-20 14:29 48.25839 -2.61706 36117 ft 430 kts 327°
2026-04-20 14:30 48.31028 -2.66157 36130 ft 430 kts 327°
2026-04-20 14:30 48.36183 -2.70590 36125 ft 429 kts 327°
2026-04-20 14:31 48.41406 -2.75090 36155 ft 429 kts 327°
2026-04-20 14:31 48.46548 -2.79532 36147 ft 429 kts 326°
2026-04-20 14:32 48.51712 -2.84003 36158 ft 428 kts 326°
2026-04-20 14:32 48.56866 -2.88477 36159 ft 427 kts 326°
2026-04-20 14:33 48.62011 -2.92953 36169 ft 426 kts 326°
2026-04-20 14:33 48.67149 -2.97434 36161 ft 426 kts 326°
2026-04-20 14:34 48.72283 -3.01923 36159 ft 426 kts 326°
2026-04-20 14:34 48.77408 -3.06414 36157 ft 425 kts 326°
2026-04-20 14:35 48.82525 -3.10908 36172 ft 425 kts 326°
2026-04-20 14:35 48.87645 -3.15416 36169 ft 426 kts 326°
2026-04-20 14:36 48.92769 -3.19938 36169 ft 426 kts 326°
2026-04-20 14:36 48.97902 -3.24480 36172 ft 427 kts 326°
2026-04-20 14:37 49.03040 -3.29036 36175 ft 428 kts 326°
2026-04-20 14:37 49.08183 -3.33609 36190 ft 428 kts 326°
2026-04-20 14:38 49.13327 -3.38192 36180 ft 428 kts 326°
2026-04-20 14:38 49.18463 -3.42780 36192 ft 428 kts 326°
2026-04-20 14:39 49.23595 -3.47377 36195 ft 427 kts 326°
2026-04-20 14:39 49.28720 -3.51977 36191 ft 426 kts 326°
2026-04-20 14:40 49.33911 -3.56233 36166 ft 430 kts 334°
2026-04-20 14:40 49.39533 -3.59386 36195 ft 430 kts 336°
2026-04-20 14:41 49.45155 -3.62497 36195 ft 429 kts 335°
2026-04-20 14:41 49.50753 -3.65675 36206 ft 429 kts 335°
2026-04-20 14:42 49.56339 -3.68884 36214 ft 428 kts 335°
2026-04-20 14:42 49.61923 -3.72099 36211 ft 428 kts 335°
2026-04-20 14:43 49.67542 -3.75158 36206 ft 432 kts 342°
2026-04-20 14:43 49.73568 -3.76128 36222 ft 443 kts 358°
2026-04-20 14:44 49.79721 -3.75389 36220 ft 445 kts
2026-04-20 14:44 49.85891 -3.74565 36228 ft 445 kts 360°
2026-04-20 14:45 49.92069 -3.73795 36241 ft 446 kts 360°
2026-04-20 14:45 49.98265 -3.73055 36230 ft 447 kts 360°
2026-04-20 14:46 50.04472 -3.72319 36231 ft 448 kts 360°
2026-04-20 14:46 50.10690 -3.71578 36232 ft 448 kts 360°
2026-04-20 14:47 50.16913 -3.70833 36243 ft 449 kts
2026-04-20 14:48 50.26208 -3.69716 36229 ft 448 kts
2026-04-20 14:48 50.32420 -3.68967 36236 ft 448 kts
2026-04-20 14:49 50.38628 -3.68328 36238 ft 444 kts 354°
2026-04-20 14:49 50.44620 -3.69835 36231 ft 432 kts 337°
2026-04-20 14:50 50.50185 -3.73242 36225 ft 429 kts 334°
2026-04-20 14:50 50.55710 -3.76751 36234 ft 428 kts 334°
2026-04-20 14:51 50.61238 -3.80228 36243 ft 428 kts 334°
2026-04-20 14:51 50.66766 -3.83681 36229 ft 428 kts 335°
2026-04-20 14:52 50.72301 -3.87138 36225 ft 427 kts 335°
2026-04-20 14:52 50.77821 -3.90593 36228 ft 427 kts 335°
2026-04-20 14:53 50.83336 -3.94055 36250 ft 427 kts 334°
2026-04-20 14:53 50.88853 -3.97528 36236 ft 426 kts 334°
2026-04-20 14:54 50.94333 -4.00987 36227 ft 426 kts 334°
2026-04-20 14:54 50.99838 -4.04469 36232 ft 426 kts 334°
2026-04-20 14:55 51.05335 -4.07956 36237 ft 425 kts 334°
2026-04-20 14:55 51.10823 -4.11446 36233 ft 425 kts 334°
2026-04-20 14:56 51.16310 -4.14945 36239 ft 425 kts 334°
2026-04-20 14:56 51.21799 -4.18454 36238 ft 425 kts 334°
2026-04-20 14:57 51.27279 -4.21965 36259 ft 424 kts 334°
2026-04-20 14:57 51.32765 -4.25491 36243 ft 425 kts 334°
2026-04-20 14:58 51.38242 -4.29018 36244 ft 424 kts 334°
2026-04-20 14:58 51.43696 -4.32618 36226 ft 423 kts 332°
2026-04-20 14:59 51.49008 -4.36645 36245 ft 422 kts 330°
2026-04-20 14:59 51.54299 -4.40760 36261 ft 423 kts 330°
2026-04-20 15:00 51.59610 -4.44850 36254 ft 423 kts 330°
2026-04-20 15:00 51.64929 -4.48929 36257 ft 423 kts 330°
2026-04-20 15:01 51.70212 -4.52989 36258 ft 424 kts 330°
2026-04-20 15:01 51.75467 -4.57243 36247 ft 421 kts 324°
2026-04-20 15:02 51.79932 -4.63210 36251 ft 415 kts 309°
2026-04-20 15:02 51.83596 -4.70411 36258 ft 414 kts 307°
2026-04-20 15:03 51.87231 -4.77649 36256 ft 414 kts 308°
2026-04-20 15:03 51.90883 -4.84873 36261 ft 414 kts 308°
2026-04-20 15:04 51.93920 -4.90874 36242 ft 415 kts 308°
2026-04-20 15:04 51.97575 -4.98109 36263 ft 415 kts 308°
2026-04-20 15:05 52.01555 -5.04878 36265 ft 417 kts 319°
2026-04-20 15:05 52.06511 -5.09865 36270 ft 422 kts 330°
2026-04-20 15:05 52.09163 -5.11946 35987 ft 427 kts 330°
2026-04-20 15:06 52.11834 -5.14070 35522 ft 424 kts 330°
2026-04-20 15:06 52.14473 -5.16202 34845 ft 424 kts 329°
2026-04-20 15:06 52.17094 -5.18342 34389 ft 419 kts 329°
2026-04-20 15:06 52.19705 -5.20479 33417 ft 423 kts 329°
2026-04-20 15:07 52.22335 -5.22637 32639 ft 423 kts 328°
2026-04-20 15:07 52.24955 -5.24786 32002 ft 420 kts 328°
2026-04-20 15:07 52.27558 -5.26923 31316 ft 419 kts 328°
2026-04-20 15:07 52.30160 -5.29063 30586 ft 419 kts 328°
2026-04-20 15:08 52.32770 -5.31213 29743 ft 420 kts 328°
2026-04-20 15:08 52.35380 -5.33366 28899 ft 420 kts 328°
2026-04-20 15:08 52.37986 -5.35515 28057 ft 419 kts 328°
2026-04-20 15:08 52.40586 -5.37664 27218 ft 419 kts 328°
2026-04-20 15:09 52.43180 -5.39809 26602 ft 414 kts 328°
2026-04-20 15:09 52.45738 -5.41926 25962 ft 410 kts 328°
2026-04-20 15:09 52.48272 -5.44028 25351 ft 406 kts 328°
2026-04-20 15:09 52.50778 -5.46110 24767 ft 402 kts 328°
2026-04-20 15:10 52.53257 -5.48172 24178 ft 398 kts 328°
2026-04-20 15:10 52.55727 -5.50193 23530 ft 396 kts 331°
2026-04-20 15:10 52.58315 -5.51766 22893 ft 396 kts 338°
2026-04-20 15:10 52.60948 -5.53036 22268 ft 393 kts 340°
2026-04-20 15:11 52.63557 -5.54245 21717 ft 388 kts 340°
2026-04-20 15:11 52.66131 -5.55491 21151 ft 383 kts 339°
2026-04-20 15:11 52.68639 -5.56759 20570 ft 380 kts 339°
2026-04-20 15:11 52.71164 -5.58059 20067 ft 374 kts 339°
2026-04-20 15:12 52.73635 -5.59339 19551 ft 370 kts 339°
2026-04-20 15:12 52.76080 -5.60604 18997 ft 367 kts 339°
2026-04-20 15:12 52.78512 -5.61862 18435 ft 365 kts 340°
2026-04-20 15:12 52.80921 -5.63109 17823 ft 362 kts 340°
2026-04-20 15:13 52.83325 -5.64354 17291 ft 361 kts 340°
2026-04-20 15:13 52.85687 -5.65579 16749 ft 360 kts 340°
2026-04-20 15:13 52.88094 -5.66830 16209 ft 368 kts 341°
2026-04-20 15:13 52.90581 -5.68125 15640 ft 379 kts 341°
2026-04-20 15:14 52.93094 -5.69433 15070 ft 377 kts 341°
2026-04-20 15:14 52.95584 -5.70729 14506 ft 374 kts 342°
2026-04-20 15:14 52.98057 -5.72018 13943 ft 371 kts 342°
2026-04-20 15:14 53.00512 -5.73299 13356 ft 368 kts 342°
2026-04-20 15:15 53.02940 -5.74568 12835 ft 364 kts 342°
2026-04-20 15:15 53.05343 -5.75825 12292 ft 361 kts 342°
2026-04-20 15:15 53.07725 -5.77073 11766 ft 358 kts 342°
2026-04-20 15:15 53.10090 -5.78314 11315 ft 353 kts 342°
2026-04-20 15:16 53.12298 -5.79871 11183 ft 340 kts 326°
2026-04-20 15:16 53.13985 -5.82499 11047 ft 328 kts 308°
2026-04-20 15:16 53.15131 -5.85722 10930 ft 322 kts 295°
2026-04-20 15:16 53.16013 -5.89110 10803 ft 316 kts 294°
2026-04-20 15:17 53.16858 -5.92457 10666 ft 310 kts 293°
2026-04-20 15:17 53.17684 -5.95724 10531 ft 301 kts 293°
2026-04-20 15:17 53.18489 -5.98891 10417 ft 292 kts 294°
2026-04-20 15:17 53.19278 -6.01961 10281 ft 284 kts 294°
2026-04-20 15:18 53.20053 -6.04969 9984 ft 282 kts 294°
2026-04-20 15:18 53.20826 -6.07963 9718 ft 279 kts 294°
2026-04-20 15:18 53.21593 -6.10932 9418 ft 277 kts 294°
2026-04-20 15:18 53.22354 -6.13876 9123 ft 276 kts 294°
2026-04-20 15:19 53.23108 -6.16799 8836 ft 274 kts 294°
2026-04-20 15:19 53.23861 -6.19719 8555 ft 273 kts 294°
2026-04-20 15:19 53.24608 -6.22622 8274 ft 272 kts 294°
2026-04-20 15:19 53.25351 -6.25516 7993 ft 271 kts 293°
2026-04-20 15:20 53.26089 -6.28399 7759 ft 268 kts 293°
2026-04-20 15:20 53.26811 -6.31214 7653 ft 260 kts 294°
2026-04-20 15:20 53.27512 -6.33954 7541 ft 253 kts 294°
2026-04-20 15:20 53.28196 -6.36630 7425 ft 247 kts 294°
2026-04-20 15:21 53.28859 -6.39231 7324 ft 240 kts 294°
2026-04-20 15:21 53.29504 -6.41758 7196 ft 234 kts 293°
2026-04-20 15:21 53.30147 -6.44281 7029 ft 238 kts 293°
2026-04-20 15:21 53.30792 -6.46818 6871 ft 243 kts 293°
2026-04-20 15:22 53.31461 -6.49448 6682 ft 247 kts 293°
2026-04-20 15:22 53.32135 -6.52101 6484 ft 248 kts 293°
2026-04-20 15:22 53.32805 -6.54742 6277 ft 246 kts 293°
2026-04-20 15:22 53.33471 -6.57370 6100 ft 244 kts 293°
2026-04-20 15:23 53.34129 -6.59971 5891 ft 242 kts 293°
2026-04-20 15:23 53.34779 -6.62541 5712 ft 238 kts 293°
2026-04-20 15:23 53.35410 -6.65040 5556 ft 228 kts 293°
2026-04-20 15:23 53.36086 -6.67451 5137 ft 230 kts 305°
2026-04-20 15:24 53.37306 -6.69030 4931 ft 220 kts 343°
2026-04-20 15:24 53.38776 -6.69294 4767 ft 208 kts
2026-04-20 15:24 53.40156 -6.69101 4580 ft 198 kts
2026-04-20 15:24 53.41499 -6.68872 4399 ft 190 kts
2026-04-20 15:25 53.42780 -6.68659 4249 ft 181 kts
2026-04-20 15:25 53.43984 -6.68190 4119 ft 178 kts 28°
2026-04-20 15:25 53.44943 -6.66886 4012 ft 179 kts 53°
2026-04-20 15:25 53.45510 -6.65027 3877 ft 181 kts 76°
2026-04-20 15:26 53.45611 -6.62976 3735 ft 173 kts 94°
2026-04-20 15:26 53.45516 -6.60993 3589 ft 168 kts 95°
2026-04-20 15:26 53.45409 -6.59046 3456 ft 167 kts 95°
2026-04-20 15:26 53.45303 -6.57128 3321 ft 163 kts 95°
2026-04-20 15:27 53.45200 -6.55254 3204 ft 161 kts 95°
2026-04-20 15:27 53.45099 -6.53391 3078 ft 163 kts 95°
2026-04-20 15:27 53.44994 -6.51476 3043 ft 166 kts 95°
2026-04-20 15:27 53.44891 -6.49585 2975 ft 158 kts 95°
2026-04-20 15:28 53.44792 -6.47758 2985 ft 159 kts 95°
2026-04-20 15:28 53.44705 -6.45880 2976 ft 167 kts 92°
2026-04-20 15:28 53.44629 -6.43937 2647 ft 162 kts 96°
2026-04-20 15:28 53.44500 -6.42079 2186 ft 161 kts 97°
2026-04-20 15:29 53.44353 -6.40238 1846 ft 152 kts 95°
2026-04-20 15:29 53.44268 -6.38481 1518 ft 152 kts 95°
2026-04-20 15:29 53.44181 -6.36748 1246 ft 143 kts 94°
2026-04-20 15:29 53.44102 -6.35109 1023 ft 138 kts 94°
2026-04-20 15:30 53.44018 -6.33528 850 ft 134 kts 94°
2026-04-20 15:30 53.43934 -6.31969 670 ft 137 kts 94°
2026-04-20 15:30 53.43842 -6.30371 543 ft 137 kts 93°
2026-04-20 15:30 53.43758 -6.28786 332 ft 136 kts 94°
2026-04-20 15:31 53.43670 -6.27243 214 ft 126 kts 95°
2026-04-20 15:31 53.43610 -6.26103 209 ft 68 kts 95°
2026-04-20 15:31 53.43580 -6.25586 212 ft 34 kts 96°
2026-04-20 15:31 53.43528 -6.25230 217 ft 30 kts 115°
2026-04-20 15:32 53.43442 -6.24994 214 ft 10 kts 121°
2026-04-20 15:32 53.43415 -6.24903 218 ft 8 kts 118°
2026-04-20 15:32 53.43390 -6.24828 212 ft 7 kts 119°
2026-04-20 15:32 53.43369 -6.24761 212 ft 6 kts 111°
2026-04-20 15:33 53.43358 -6.24670 220 ft 10 kts 96°
2026-04-20 15:33 53.43350 -6.24528 210 ft 14 kts 96°
2026-04-20 15:33 53.43308 -6.24401 210 ft 13 kts 171°
2026-04-20 15:33 53.43217 -6.24419 218 ft 13 kts 192°
2026-04-20 15:34 53.43192 -6.24547 210 ft 13 kts 277°
2026-04-20 15:34 53.43187 -6.24678 210 ft 10 kts 251°
2026-04-20 15:34 53.43185 -6.24790 215 ft 10 kts 273°
2026-04-20 15:34 53.43192 -6.24899 210 ft 9 kts 276°
2026-04-20 15:35 53.43199 -6.24997 210 ft 7 kts 276°
2026-04-20 15:35 53.43202 -6.25074 214 ft 7 kts 271°
2026-04-20 15:35 53.43195 -6.25142 215 ft 5 kts 221°
2026-04-20 15:35 53.43163 -6.25149 210 ft 5 kts 183°
2026-04-20 15:36 53.43134 -6.25153 218 ft 2 kts 185°
2026-04-20 15:36 53.43131 -6.25153 218 ft 0 kts 185°